Seattle, WA
on Tuesday, November 27, 2012

Tuesday
Previous Day Next Day
Daily Summary
 ActualAverageRecord
Temperature
Mean Temperature °F 43°F  
Max Temperature 50°F 48°F 58°F (2013)
Min Temperature 35°F 38°F 19°F (1985)
Degree Days
Heating Degree Days 22 22  
Month to date heating degree days 486 519  
Since 1 July heating degree days 979 1116  
Cooling Degree Days 0 0  
Month to date cooling degree days 0 0  
Year to date cooling degree days 177 189  
Moisture
Dew Point 35°F   
Average Humidity 73    
Maximum Humidity 89    
Minimum Humidity 56    
Precipitation
Precipitation 0.00 in 0.22 in 1.30 in (1996)
Month to date precipitation 6.71 5.91  
Year to date precipitation 39.84 31.48  
Snow
Snow 0.00 in in 7.60 in (1985)
Month to date snowfall 0.0  
Since 1 July snowfall 0.0  
Snow Depth 0.00 in   
Wind
Wind Speed 3 mph   
Max Wind Speed 12 mph   
Max Gust Speed 13 mph   
Visibility 10 miles   
Events     

Key: T is trace of precipitation, MM is missing value
Source: NWS Daily Summary
Time(PST)TemperatureDew PointHumidity Pressure Visibility Wind DirectionWind SpeedGust SpeedPrecipitationEvents Conditions
12:53 AM 37.9°F 30.0°F 73% 30.10 in 10.0 miles Calm Calm - N/A   Mostly Cloudy
1:53 AM 37.0°F 32.0°F 82% 30.10 in 10.0 miles Calm Calm - N/A   Overcast
2:53 AM 36.0°F 32.0°F 86% 30.11 in 10.0 miles SE 8.1 mph - N/A   Scattered Clouds
3:53 AM 37.0°F 33.1°F 86% 30.09 in 10.0 miles SE 5.8 mph - N/A   Mostly Cloudy
4:53 AM 37.0°F 33.1°F 86% 30.09 in 10.0 miles SE 4.6 mph - N/A   Mostly Cloudy
5:53 AM 37.0°F 32.0°F 82% 30.09 in 10.0 miles Calm Calm - N/A   Mostly Cloudy
6:53 AM 37.0°F 33.1°F 86% 30.09 in 10.0 miles Calm Calm - N/A   Mostly Cloudy
7:53 AM 36.0°F 32.0°F 86% 30.09 in 10.0 miles Calm Calm - N/A   Mostly Cloudy
8:53 AM 37.9°F 33.1°F 83% 30.09 in 10.0 miles North 4.6 mph - N/A   Mostly Cloudy
9:53 AM 42.1°F 36.0°F 79% 30.09 in 10.0 miles NNE 4.6 mph - N/A   Mostly Cloudy
10:53 AM 45.0°F 35.1°F 68% 30.08 in 10.0 miles NNE 3.5 mph - N/A   Mostly Cloudy
11:53 AM 48.0°F 34.0°F 58% 30.05 in 10.0 miles Calm Calm - N/A   Mostly Cloudy
12:53 PM 48.9°F 37.9°F 66% 30.04 in 10.0 miles Calm Calm - N/A   Mostly Cloudy
1:53 PM 48.9°F 39.0°F 69% 30.02 in 10.0 miles West 3.5 mph - N/A   Mostly Cloudy
2:53 PM 46.9°F 39.0°F 74% 30.01 in 10.0 miles WNW 3.5 mph - N/A   Mostly Cloudy
3:53 PM 45.0°F 37.0°F 74% 30.01 in 10.0 miles WNW 3.5 mph - N/A   Mostly Cloudy
4:53 PM 44.1°F 37.0°F 76% 30.00 in 10.0 miles Calm Calm - N/A   Mostly Cloudy
5:53 PM 43.0°F 36.0°F 76% 29.99 in 10.0 miles North 5.8 mph - N/A   Overcast
6:53 PM 43.0°F 36.0°F 76% 29.98 in 10.0 miles North 5.8 mph - N/A   Mostly Cloudy
7:53 PM 42.1°F 36.0°F 79% 29.96 in 10.0 miles North 5.8 mph - N/A   Mostly Cloudy
8:53 PM 43.0°F 36.0°F 76% 29.94 in 10.0 miles NE 5.8 mph - N/A   Mostly Cloudy
9:53 PM 41.0°F 35.1°F 79% 29.93 in 10.0 miles North 4.6 mph - N/A   Mostly Cloudy
10:53 PM 42.1°F 35.1°F 76% 29.92 in 10.0 miles NNE 6.9 mph - N/A   Mostly Cloudy
11:53 PM 41.0°F 36.0°F 82% 29.91 in 10.0 miles North 4.6 mph - N/A   Mostly Cloudy
Moon Phase
Nov. 27 Nov. 28 Dec. 06 Dec. 13 Dec. 20
Sunrise:07:31 AM (PST) Moon Rise:03:58 PM (PST)11/27
Sunset:04:22 PM (PST) Moon Set:06:40 AM (PST)11/27

Copyright © 2014 The Weather Underground, Inc.